TimeCST,TemperatureF,Dew PointF,Humidity,Sea Level PressureIn,VisibilityMPH,Wind Direction,Wind SpeedMPH,Gust SpeedMPH,PrecipitationIn,Events,Conditions,WindDirDegrees,DateUTC
12:15 AM,22.5,13.5,68,29.56,10.0,SSW,10.4,18.4,N/A,,Clear,200,2014-01-04 06:15:00
12:35 AM,22.8,14.0,69,29.56,10.0,SSW,11.5,19.6,N/A,,Scattered Clouds,200,2014-01-04 06:35:00
12:55 AM,23.4,14.4,68,29.55,10.0,SSW,10.4,17.3,N/A,,Scattered Clouds,200,2014-01-04 06:55:00
1:15 AM,23.7,14.7,69,29.54,10.0,SSW,8.1,17.3,N/A,,Clear,210,2014-01-04 07:15:00
1:35 AM,24.6,15.3,68,29.53,10.0,SSW,10.4,18.4,N/A,,Scattered Clouds,210,2014-01-04 07:35:00
1:55 AM,25.3,15.8,67,29.54,10.0,SSW,10.4,20.7,N/A,,Scattered Clouds,210,2014-01-04 07:55:00
2:15 AM,26.1,16.5,67,29.54,10.0,SSW,10.4,21.9,N/A,,Mostly Cloudy,210,2014-01-04 08:15:00
2:35 AM,26.4,16.9,67,29.53,10.0,SSW,10.4,-,N/A,,Overcast,210,2014-01-04 08:35:00
2:55 AM,27.0,17.6,68,29.52,10.0,SSW,11.5,18.4,N/A,,Overcast,200,2014-01-04 08:55:00
3:15 AM,27.3,18.3,69,29.51,10.0,SSW,11.5,18.4,N/A,,Overcast,210,2014-01-04 09:15:00
3:35 AM,27.5,18.9,70,29.51,10.0,SSW,10.4,20.7,N/A,,Overcast,210,2014-01-04 09:35:00
3:55 AM,28.2,19.2,69,29.53,10.0,SW,5.8,-,N/A,,Overcast,220,2014-01-04 09:55:00
4:15 AM,28.4,19.9,71,29.53,10.0,SW,8.1,-,N/A,,Overcast,220,2014-01-04 10:15:00
4:35 AM,29.1,20.7,71,29.53,10.0,SSW,8.1,-,N/A,,Overcast,210,2014-01-04 10:35:00
4:55 AM,29.3,21.0,71,29.53,10.0,SSW,8.1,-,N/A,,Overcast,210,2014-01-04 10:55:00
5:15 AM,29.3,21.4,72,29.55,10.0,SW,5.8,-,N/A,,Overcast,220,2014-01-04 11:15:00
5:35 AM,29.7,21.9,73,29.55,10.0,SW,4.6,-,N/A,,Overcast,230,2014-01-04 11:35:00
5:55 AM,29.8,22.6,75,29.56,10.0,SW,4.6,-,N/A,,Overcast,230,2014-01-04 11:55:00
6:15 AM,30.0,22.8,75,29.57,10.0,SW,3.5,-,N/A,,Overcast,220,2014-01-04 12:15:00
6:35 AM,30.2,22.8,74,29.59,10.0,SSW,4.6,-,N/A,,Overcast,210,2014-01-04 12:35:00
6:38 AM,30.2,23.0,75,29.59,10.0,SSW,5.8,-,N/A,,Overcast,210,2014-01-04 12:38:00
6:55 AM,30.6,23.0,74,29.59,10.0,SSW,5.8,-,N/A,,Overcast,210,2014-01-04 12:55:00
7:15 AM,30.7,23.4,74,29.59,10.0,SSW,5.8,-,N/A,,Overcast,210,2014-01-04 13:15:00
7:35 AM,31.1,23.9,75,29.61,10.0,SW,4.6,-,N/A,,Overcast,220,2014-01-04 13:35:00
7:55 AM,31.3,24.3,75,29.63,10.0,SW,8.1,-,N/A,,Overcast,230,2014-01-04 13:55:00
8:15 AM,31.6,24.8,76,29.64,10.0,WSW,6.9,-,N/A,,Overcast,240,2014-01-04 14:15:00
8:35 AM,31.6,25.7,79,29.65,7.0,West,3.5,-,N/A,,Overcast,260,2014-01-04 14:35:00
8:55 AM,31.1,26.8,84,29.67,5.0,WSW,4.6,-,N/A,,Overcast,240,2014-01-04 14:55:00
9:15 AM,31.1,27.1,85,29.69,10.0,West,5.8,-,N/A,,Overcast,270,2014-01-04 15:15:00
9:35 AM,32.0,28.4,87,29.71,5.0,WNW,8.1,-,N/A,,Overcast,290,2014-01-04 15:35:00
9:55 AM,31.6,26.6,82,29.74,7.0,WNW,12.7,17.3,N/A,,Overcast,300,2014-01-04 15:55:00
10:15 AM,30.2,23.5,76,29.75,7.0,NW,11.5,18.4,N/A,,Overcast,320,2014-01-04 16:15:00
10:35 AM,29.3,21.2,72,29.76,10.0,NW,13.8,17.3,N/A,,Overcast,310,2014-01-04 16:35:00
10:55 AM,28.8,20.5,71,29.79,10.0,NW,11.5,18.4,N/A,,Overcast,320,2014-01-04 16:55:00
11:15 AM,28.0,19.8,71,29.79,10.0,NW,10.4,-,N/A,,Overcast,320,2014-01-04 17:15:00
11:35 AM,26.8,18.1,70,29.81,10.0,NW,12.7,17.3,N/A,,Overcast,320,2014-01-04 17:35:00
11:55 AM,26.2,17.4,69,29.80,10.0,NW,11.5,18.4,N/A,,Overcast,320,2014-01-04 17:55:00
12:15 PM,25.7,16.5,68,29.80,10.0,NNW,11.5,16.1,N/A,,Overcast,330,2014-01-04 18:15:00
12:35 PM,24.6,15.4,68,29.82,10.0,NW,13.8,19.6,N/A,,Overcast,320,2014-01-04 18:35:00
12:55 PM,23.7,14.0,66,29.82,10.0,NNW,11.5,17.3,N/A,,Overcast,330,2014-01-04 18:55:00
1:15 PM,22.8,12.7,65,29.84,10.0,NNW,9.2,16.1,N/A,,Overcast,340,2014-01-04 19:15:00
1:35 PM,22.8,12.0,63,29.85,10.0,NNW,9.2,-,N/A,,Mostly Cloudy,340,2014-01-04 19:35:00
1:55 PM,22.1,11.3,63,29.86,10.0,NNW,10.4,-,N/A,,Scattered Clouds,340,2014-01-04 19:55:00
2:15 PM,21.6,10.2,62,29.89,10.0,NNW,10.4,-,N/A,,Clear,340,2014-01-04 20:15:00
2:35 PM,20.8,8.6,59,29.91,10.0,NNW,10.4,-,N/A,,Clear,330,2014-01-04 20:35:00
2:55 PM,19.9,7.3,58,29.93,10.0,NNW,8.1,-,N/A,,Clear,330,2014-01-04 20:55:00
3:15 PM,19.0,6.4,58,29.95,10.0,NW,9.2,-,N/A,,Clear,320,2014-01-04 21:15:00
3:35 PM,18.5,5.7,58,29.96,10.0,WNW,6.9,-,N/A,,Clear,300,2014-01-04 21:35:00
3:55 PM,18.1,5.4,57,29.96,10.0,NW,5.8,-,N/A,,Clear,310,2014-01-04 21:55:00
4:15 PM,17.6,5.0,58,29.96,10.0,NW,5.8,-,N/A,,Clear,320,2014-01-04 22:15:00
4:35 PM,17.1,5.0,59,29.97,10.0,NW,6.9,-,N/A,,Clear,320,2014-01-04 22:35:00
4:55 PM,16.0,5.0,62,30.00,10.0,WNW,4.6,-,N/A,,Clear,300,2014-01-04 22:55:00
5:15 PM,15.8,5.0,62,30.00,10.0,WNW,5.8,-,N/A,,Clear,300,2014-01-04 23:15:00
5:35 PM,15.4,4.8,63,30.01,10.0,NW,5.8,-,N/A,,Clear,310,2014-01-04 23:35:00
5:55 PM,15.3,4.1,61,30.03,10.0,NW,5.8,-,N/A,,Clear,310,2014-01-04 23:55:00
6:15 PM,14.9,3.6,61,30.03,10.0,NW,5.8,-,N/A,,Clear,320,2014-01-05 00:15:00
6:35 PM,14.4,3.0,61,30.04,10.0,NW,4.6,-,N/A,,Clear,310,2014-01-05 00:35:00
6:55 PM,13.8,2.7,61,30.07,10.0,NW,6.9,-,N/A,,Clear,310,2014-01-05 00:55:00
7:15 PM,13.6,2.3,61,30.07,10.0,NW,4.6,-,N/A,,Clear,310,2014-01-05 01:15:00
7:35 PM,13.1,2.3,62,30.08,10.0,NW,3.5,-,N/A,,Clear,310,2014-01-05 01:35:00
7:55 PM,12.9,2.1,62,30.09,10.0,NW,5.8,-,N/A,,Clear,310,2014-01-05 01:55:00
8:15 PM,12.2,1.6,63,30.10,10.0,NW,3.5,-,N/A,,Clear,310,2014-01-05 02:15:00
8:35 PM,11.5,1.0,63,30.11,10.0,NNW,3.5,-,N/A,,Clear,330,2014-01-05 02:35:00
8:55 PM,10.9,0.7,63,30.11,10.0,WNW,3.5,-,N/A,,Clear,300,2014-01-05 02:55:00
9:15 PM,10.4,0.5,64,30.11,10.0,NW,3.5,-,N/A,,Clear,310,2014-01-05 03:15:00
9:35 PM,9.7,-0.0,65,30.11,10.0,NW,3.5,-,N/A,,Clear,320,2014-01-05 03:35:00
9:55 PM,9.3,-0.4,65,30.12,10.0,NW,4.6,-,N/A,,Clear,310,2014-01-05 03:55:00
10:15 PM,9.0,-0.9,64,30.13,10.0,WNW,3.5,-,N/A,,Clear,300,2014-01-05 04:15:00
10:35 PM,9.1,-1.3,63,30.13,10.0,NW,4.6,-,N/A,,Clear,310,2014-01-05 04:35:00
10:55 PM,8.6,-1.7,63,30.14,10.0,NW,4.6,-,N/A,,Clear,310,2014-01-05 04:55:00
11:15 PM,7.7,-2.2,64,30.15,10.0,WNW,4.6,-,N/A,,Clear,300,2014-01-05 05:15:00
11:35 PM,8.6,-2.2,62,30.15,10.0,NW,5.8,-,N/A,,Clear,310,2014-01-05 05:35:00
11:55 PM,8.6,-2.7,60,30.16,10.0,NW,5.8,-,N/A,,Clear,320,2014-01-05 05:55:00